Zurück zum Katalog

ESSAIM-4

AktivMilitärSSO
NORAD 28497·PAYLOAD·🇫🇷 France

Gestartet Dec 18, 2004 von Guiana Space Centre

Loading…

Nächste Überflüge (nächste 24 Stunden)

TLE

AktuellSource: Space-Track

Epoche: Sep 14, 2026, 15:18 UTC

1 28497U 04049F   26257.63818528  .00000877  00000-0  10131-3 0  9991
2 28497  98.2383 148.4956 0001896  58.0408 302.0992 14.88296745172763

Verfolge ESSAIM-4 in Echtzeit mit AllMySat

Download on the App Store